La Nava - Corral De Ayllón Airport

Jump to: basic info | weather | comments

Related pages: nearby airports | nearby navaids | notams | map

Basic information (top)

Codes: LECA
Location: lon 41.410801, lat -3.448330, elev 3,280 ft / 1,000 m msl
Status: small_airport

Weather (top)

Current conditions for Torrejón Airport 55nm (102km) S (rec'd 2015/03/28 04:00Z):

LETO 280400Z 02004KT CAVOK 06/05 Q1028 NOSIG

Airport forecast for Torrejón Airport 55nm (102km) S (rec'd 2015/03/28 00:15Z):

TAF LETO 272300Z 2800/2824 VRB04KT CAVOK TX22/2816Z TN05/2806Z

Latest comments (top)

No comments yet for La Nava - Corral De Ayllón Airport

More... (top)

See also NOTAMs and nearby airports and navaids, or visit the La Nava - Corral De Ayllón Airport page at the main OurAirports website..